星链-11357 (STARLINK-11357)

导读

STARLINK-11357是美国太空探索技术公司SpaceX星链星座的卫星,于2024年10月15日发射升空,属于星链低轨互联网星座组网卫星。该卫星部署于近地轨道,依托星链的激光星间链路、相控阵天线技术,可为全球提供低延迟互联网服务,覆盖民用宽带、航空海事联网、军事通信等多个场景,助力星链星座完成全球网络部署。

Basic Information
目录编号:
61541
目录名称:
STARLINK-11357
国际标识:
2024-184K
轨道中心:
EARTH
卫星名称:
星链-11357
卫星全名:
星链-11357 (STARLINK-11357)
卫星状态:
在轨 (已飞行651 天)
发射日期:
2024-10-15 UTC
国别 :
美国 (US)
星等 :
--
Orbit Information
数据来源 国际轨道数据 AOE轨道数据
星历时间 2026-07-27T12:37:43+0800
20小时前
查看轨道信息
2026-07-22T06:00:00+0800
6天前
查看轨道信息
半长轴 6737.858km 6737.817km
偏心率 0.0000933 0.0000991
轨道倾角 53.159° 53.155°
近地点辐角 104.298° 59.720°
升交点赤经 268.871° 294.884°
平近点角 255.814° 347.718°
近地点 359.092km 359.012km
远地点 360.35km 360.348km
周期 91.737分钟 91.736分钟
每日圈数 15.697121 15.697264
Detailed Information
固有亮度:
5
最大亮度:
2.5
卫星平台:
Starlink V1.0
覆盖范围:
全球
运营商:
太空探索技术公司
运营商所在国:
美国
制造商(研发单位):
太空探索技术公司
制造商所在国:
美国
使用方式:
暂无
Satellite Introduction
Starlink 计划是 SpaceX 推出的全球卫星互联网项目,通过发射低轨道卫星,为全球尤其是偏远地区提供高速、低延迟的互联网服务。自 2019 年起,Starlink 已部署数千颗卫星,旨在缩小全球数字鸿沟,推动互联网普及。该项目还为军事、航空等行业提供通信支持,带来广泛经济效益。
2D Orbit Map
3D Orbit Map
Orbit Altitude Analysis Chart
Orbit Inclination Analysis Chart
Orbit Comprehensive Analysis Chart
View Comprehensive Chart